{"data":{"norad_id":48371,"intl_designator":"2021-038U","name":"STARLINK-2589","alt_names":[],"object_type":"PAYLOAD","status":"ACTIVE","operator":null,"country":"US","launch_date":"2021-05-04","launch_site_code":"AFETR","launch_vehicle":null,"mission":null,"orbit_class":"UNKNOWN","rcs_meters":null,"size_class":null,"mass_kg":null,"dimensions":null,"purposes":["comms"],"wikipedia_slug":null,"has_3d_model":false,"image_url":null,"decayed_at":null,"tle_current":{"epoch":"2026-05-24T23:00:36.226368Z","epoch_age_seconds":82135,"freshness":"FRESH","line1":"1 48371U 21038U   26144.95875262  .00006193  00000+0  21099-3 0  9990","line2":"2 48371  53.1613 353.1687 0001328  87.9097 272.2057 15.31728709278905","mean_motion":15.31728709,"eccentricity":0.0001328,"inclination_deg":53.1613,"raan_deg":353.1687,"arg_perigee_deg":87.9097,"mean_anomaly_deg":272.2057,"bstar":0.00021099,"rev_number":27890,"period_min":94.011425883642,"perigee_km":469.74489702711,"apogee_km":471.56393602734,"semimajor_km":6848.7914165272,"source":"CELESTRAK","updated_at":"2026-05-25T13:38:16.687657Z"}}}